Weather in Orlovskoye

Russia / Saratov Oblast     51°45′32″N   46°53′47″E
temp.,
°C
wind,
m/s
gust,
m/s
humid.,
%
clouds,
%
prec.,
mm/h
press.,
hPa
HPBL,
m
6 march, sat
sat601:00−7nw338986 0.0 101430
04:00−9nw238888 0.0 101621
07:00−10nw228875 0.0 101621
10:00−7nw118887 0.0 101777
13:00−5n2384100 0.0 1016283
16:00−4ne2487100 0.0 1015372
19:00−6e2392100 0.0 101535
22:00−7ne2391100 0.0 101557
7 march, sun
sun701:00−9ne2389100 0.0 101433
04:00−12nnw128765 0.0 101421
07:00−13wnw23900 0.0 101521
10:00−11w35890 0.0 1016172
13:00−8wsw47890 0.0 1015398
16:00−5sw598413 0.0 1013793
19:00−6ssw6148679 0.0 1011457
22:00−4ssw8168490 0.0 1009783
8 march, mon
mon801:00−4sw101794100 0.9 10051007
04:00−3sw91689100 2.1 1004855
07:00−4wsw51193100 0.1 1004354
10:00−2sw7139398 0.4 1004841
13:000sw91491100 0.4 10031042
16:000sw91485100 0.6 10011078
19:00−3w81579100 1.1 1003940
22:00−9w6158450 1.1 1006540
9 march, tue
tue901:00−10w614890 0.0 1008373
04:00−11wsw512920 0.0 1010279
07:00−12wsw48930 0.0 1012159
10:00−10w47920 0.0 1013305
13:00−8wsw469051 0.0 1014461
16:00−7w468775 0.0 1014671
19:00−10wnw349099 0.0 101452
22:00−12wnw469288 0.0 101696
10 march, wed
wed1001:00−14wnw3691100 0.0 101698
04:00−16wnw469287 0.0 1018122
07:00−18wnw47930 0.0 1019132
10:00−17wnw59880 0.0 1021348
13:00−14wnw46857 0.0 1021526
16:00−12w368433 0.0 1020541
19:00−12wsw1296100 0.3 102036
22:00−12e1296100 0.7 102032